• Join FlightAware (Why Join?)
  • Login
  • US Flag 
02:37PM EDT


 

Airport Tracker/Info


-or-


 

Live Flight TrackerFlight Track Log ✈ EGF3994 ✈ 21-Apr-2013 ✈ KORD - KDAY

Flight Track Log - Related Links

Times and Time Zones

All times are in EDT time to prevent confusion due to time zone crossing. See the EGF3994 flight status page for this flight to view local times or setup timezone preferences in your user account.

Time Position Orientation Groundspeed Altitude Reporting Facility
EDT Latitude Longitude Course Direction KTS MPH feet Rate Location/Type
07:01PM 41.9167 -87.8667 90° East 179 206 3,200  Level Chicago TRACON
07:02PM 41.9000 -87.8000 109° East 238 274 4,700 1,020 Climbing Chicago TRACON
07:03PM 41.9624 -87.4906 98° East  Level FlightAware Approximate
07:04PM 41.9492 -87.3552 95° East  Level FlightAware Approximate
07:04PM 41.9072 -87.6217 87° East 269 310 6,100  Level Chicago Center
07:05PM 41.9395 -87.2193 95° East  Level FlightAware Approximate
07:05PM 41.9147 -87.5153 85° East 284 327 8,700  Level Chicago Center
07:06PM 41.9333 -87.0832 90° East  Level FlightAware Approximate
07:06PM 41.9225 -87.4064 84° East 292 336 11,000  Level Chicago Center
07:07PM 41.9333 -86.9605 90° East  Level FlightAware Approximate
07:07PM 41.9294 -87.2953 85° East 297 342 13,200  Level Chicago Center
07:08PM 41.9375 -87.1753 85° East 316 364 14,000 1,140 Climbing Chicago Center
07:09PM 41.9461 -87.0139 86° East 353 406 15,600 1,500 Climbing Chicago Center
07:10PM 41.9478 -86.8781 89° East 362 417 17,100 1,200 Climbing Chicago Center
07:11PM 41.9492 -86.7397 89° East 367 422 18,100 1,200 Climbing Chicago Center
07:12PM 41.9506 -86.5939 89° East 374 430 19,700 1,500 Climbing Chicago Center
07:13PM 41.9478 -86.4500 91° East 382 440 21,200 1,320 Climbing Chicago Center
07:14PM 41.9297 -86.3067 100° East 387 445 22,500 840 Climbing Chicago Center
07:15PM 41.8647 -86.1883 126° Southeast 390 449 23,000 240 Climbing Chicago Center
07:16PM 41.7653 -86.0536 135° Southeast 420 483 23,000  Level Chicago Center
07:17PM 41.6817 -85.9364 134° Southeast 433 498 23,000  Level Chicago Center
07:18PM 41.5983 -85.8194 134° Southeast 437 503 23,000  Level Chicago Center
07:19PM 41.5133 -85.7019 134° Southeast 442 509 23,000  Level Chicago Center
07:21PM 41.4292 -85.5844 134° Southeast 445 512 23,000  Level Chicago Center
07:22PM 41.3278 -85.4428 134° Southeast 447 514 23,000  Level Chicago Center
07:23PM 41.2431 -85.3267 134° Southeast 445 512 23,000  Level Chicago Center
07:24PM 41.1569 -85.2092 134° Southeast 445 512 23,000 -900 Level Chicago Center
07:25PM 41.0722 -85.0900 133° Southeast 445 512 21,200 -2,100 Descending Chicago Center
07:26PM 40.9906 -84.9775 134° Southeast 438 504 18,700 -2,400 Descending Chicago Center
07:27PM 40.8975 -84.8508 134° Southeast 418 481 16,300 -1,800 Descending Chicago Center
07:28PM 40.8239 -84.7528 135° Southeast 395 455 15,100 -600 Descending Chicago Center
07:29PM 40.7489 -84.6522 135° Southeast 388 447 15,100 -540 Level Chicago Center
07:30PM 40.6728 -84.5522 135° Southeast 386 444 14,000 -1,380 Descending Chicago Center
07:30PM 40.6125 -84.5131 154° Southeast 389 448 13,000 -1,680 Descending Indianapolis Center
07:31PM 40.5628 -84.5069 175° South 383 441 12,300 -1,500 Descending Indianapolis Center
07:31PM 40.5053 -84.5000 175° South 384 442 11,500 -1,200 Descending Indianapolis Center
07:32PM 40.4592 -84.4953 176° South 375 432 11,100 -900 Descending Indianapolis Center
07:32PM 40.4031 -84.4889 175° South 372 428 10,600 -900 Descending Indianapolis Center
07:33PM 40.3531 -84.4833 175° South 352 405 10,200 -600 Descending Indianapolis Center
07:33PM 40.3058 -84.4789 176° South 360 414 10,000 -120 Descending Indianapolis Center
07:34PM 40.2597 -84.4733 175° South 341 392 10,100  Climbing Indianapolis Center
07:34PM 40.2097 -84.4681 175° South 351 404 10,000  Descending Indianapolis Center
07:35PM 40.1639 -84.4628 175° South 344 396 10,100  Climbing Indianapolis Center
07:36PM 40.1142 -84.4572 175° South 347 399 10,000 -300 Descending Indianapolis Center
07:36PM 40.0683 -84.4525 175° South 303 349 9,800 -1,260 Descending Indianapolis Center
07:37PM 40.0308 -84.4472 174° South 325 374 8,700 -2,580 Descending Indianapolis Center
07:37PM 40.0006 -84.4350 163° South 255 293 7,500 -2,520 Descending Indianapolis Center
07:38PM 39.9664 -84.4153 156° South 271 312 6,100 -2,580 Descending Indianapolis Center
07:38PM 39.9347 -84.3961 155° Southeast 222 255 4,900 -3,480 Descending Indianapolis Center